Home   Weather   Hildesheim   Past weeks

Flag for Germany Past Weather in Hildesheim, Lower Saxony, Germany — Yesterday and Last 2 Weeks

Now
50 °F

Fog.


Feels Like: 49 °F
Forecast: 53 / 74 °F
Wind: 3 mph from East

Location: Hannover

Current Time: Aug 31, 2016 at 6:28:13 AM

Latest Report: Aug 31, 2016 at 5:50 AM


Visibility: N/A

Pressure: 30.21 "Hg

Humidity: 94%

Dew Point: 48 °F

Location of HildesheimLocation

Past Weather in Hildesheim — Graph

°F

Hildesheim Temperature Yesterday

Maximum temperature yesterday: 73 °F (at 3:50 PM)
Minimum temperature yesterday: 48 °F (at 3:20 AM)
Average temperature yesterday: 61 °F

High & Low Weather Summary for the Past Weeks

 TemperatureHumidityPressure
High93 °F (Aug 28, 3:20 PM)100% (Aug 16, 5:20 AM)30.33 "Hg (Aug 16, 5:20 AM)
Low45 °F (Aug 18, 5:50 AM)20% (Aug 25, 6:50 PM)29.80 "Hg (Aug 18, 3:20 PM)
Average67 °F67%30.05 "Hg
* Reported Aug 16 5:20 AM — Aug 31 5:20 AM, Hildesheim, Weather by CustomWeather, © 2016

Note: Actual official high and low records may vary slightly from our data, if they occured in-between our weather recording intervals... More about our weather records

Advertising

Hildesheim Weather History for the Previous 24 Hours

Scroll right to see more
 ConditionsComfort  
Time TempWeatherWind HumidityBarometerVisibility
5:20 AM
Wed, Aug 31
50 °FClear.5 mph94%30.21 "Hg10 mi
4:50 AM52 °FClear.5 mph88%30.21 "Hg10 mi
4:20 AM52 °FClear.5 mph88%30.21 "Hg10 mi
3:50 AM54 °FClear.5 mph88%30.24 "Hg10 mi
3:20 AM54 °FClear.5 mph88%30.24 "Hg10 mi
2:50 AM54 °FClear.5 mph88%30.24 "Hg10 mi
2:20 AM55 °FClear.3 mph82%30.24 "Hg10 mi
1:50 AM55 °FClear.2 mph82%30.24 "Hg10 mi
1:20 AM55 °FClear.2 mph82%30.24 "Hg10 mi
12:50 AM55 °FClear.2 mph82%30.24 "Hg10 mi
12:20 AM57 °FClear.2 mph82%30.27 "Hg10 mi
11:50 PM
Tue, Aug 30
57 °FClear.2 mph82%30.27 "Hg10 mi
11:20 PM59 °FClear.2 mph77%30.27 "Hg10 mi
10:50 PM59 °FClear.2 mph77%30.27 "Hg10 mi
10:20 PM61 °FClear.3 mph72%30.27 "Hg10 mi
9:50 PM61 °FClear.3 mph68%30.27 "Hg10 mi
9:20 PM61 °FClear.3 mph72%30.27 "Hg10 mi
8:50 PM61 °FSunny.6 mph72%30.27 "Hg10 mi
8:20 PM63 °FSunny.5 mph68%30.27 "Hg10 mi
7:50 PM66 °FSunny.2 mph60%30.27 "Hg10 mi
7:20 PM72 °FSunny.2 mph44%30.27 "Hg10 mi
6:50 PM73 °FSunny.2 mph41%30.24 "Hg10 mi
6:20 PM73 °FSunny.2 mph41%30.27 "Hg10 mi
5:50 PM73 °FPassing clouds.5 mph41%30.27 "HgN/A
5:20 PM73 °FSunny.2 mph41%30.27 "Hg10 mi
4:50 PM72 °FSunny.3 mph44%30.27 "Hg10 mi
4:20 PM73 °FPassing clouds.7 mph41%30.27 "HgN/A
3:50 PM73 °FSunny.7 mph41%30.27 "Hg10 mi
3:20 PM72 °FPassing clouds.8 mph44%30.30 "HgN/A
2:50 PM72 °FPassing clouds.7 mph41%30.30 "HgN/A
2:20 PM72 °FPassing clouds.7 mph44%30.30 "HgN/A
1:50 PM70 °FPassing clouds.6 mph46%30.30 "HgN/A
1:20 PM70 °FPassing clouds.8 mph50%30.30 "HgN/A
12:50 PM68 °FPassing clouds.6 mph49%30.33 "HgN/A
12:20 PM68 °FPassing clouds.6 mph49%30.33 "HgN/A
11:50 AM66 °FPassing clouds.5 mph56%30.33 "HgN/A
11:20 AM64 °FPassing clouds.5 mph60%30.33 "HgN/A
10:50 AM64 °FPassing clouds.5 mph64%30.33 "HgN/A
10:20 AM63 °FPassing clouds.3 mph73%30.33 "HgN/A
9:50 AM61 °FPassing clouds.5 mph77%30.30 "HgN/A
9:20 AM59 °FPassing clouds.5 mph82%30.30 "HgN/A
8:50 AM59 °FPassing clouds.5 mph82%30.30 "HgN/A
8:20 AM55 °FSunny.3 mph88%30.30 "Hg10 mi
7:50 AM52 °FFog.2 mph94%30.27 "HgN/A
7:20 AM50 °FCool.2 mph94%30.27 "HgN/A
6:50 AM48 °FCool.2 mph94%30.27 "HgN/A
6:20 AM50 °FCool.5 mph94%30.27 "HgN/A
Weather by CustomWeather, © 2016

See weather overviewHow to use our weather pages